Temp_Advection
nan nan nan nan nan nan nan nan nan nan nan nan nan nan nan nan nan nan nan nan nan nan nan nan nan nan nan nan nan nan nan nan nan nan nan nan nan nan nan nan nan nan nan nan nan nan nan nan nan nan nan nan nan nan nan nan nan nan nan nan nan nan nan nan nan nan nan nan nan
nan -0 -0 -0 -0 -0 -0 -0 0 1 1 0 -0 -0 -1 -1 -1 -1 -1 -1 -1 0 0 0 0 0 0 0 0 -0 -1 -1 -1 -1 -1 -1 -0 0 1 0 0 1 1 2 2 1 -1 -1 -1 -1 -0 0 1 1 1 0 0 -0 -0 0 1 1 1 0 0 0 1 1 nan
nan 0 -0 -0 -0 -0 -0 0 1 1 1 -0 -0 -1 -1 -1 -1 -1 -2 -2 -1 -1 -0 -0 0 0 -0 -0 -0 -1 -1 -1 -2 -2 -1 -0 1 1 1 1 1 2 2 2 1 -1 -1 -1 -1 -0 0 0 0 0 0 0 -0 -0 0 0 1 1 0 0 0 0 1 0 nan
nan 0 -0 -0 -0 -0 -0 0 0 0 -0 -0 -0 -1 -1 -1 -1 -1 -1 -1 -1 -1 -1 -0 0 0 0 -0 -1 -1 -1 -1 -2 -1 -0 0 1 1 1 1 1 2 2 1 -1 -1 -1 -1 -0 -0 -0 -0 -0 0 0 -0 -0 0 1 1 1 1 0 0 0 0 0 0 nan
nan -0 -0 -0 -0 0 0 0 0 -0 -0 -0 -1 -1 -1 -1 -1 -1 -1 -1 -2 -2 -1 -0 0 1 0 -0 -1 -1 -1 -1 -1 -0 0 0 1 1 1 1 1 1 1 -0 -1 -1 -1 -0 -0 -0 -0 -0 0 1 0 0 0 1 1 1 1 1 0 0 0 0 0 0 nan
nan -0 -0 0 0 0 -0 -0 0 -0 -0 -0 -1 -1 -1 -1 -1 -1 -1 -2 -2 -1 -0 0 1 0 0 -0 -1 -1 -1 -1 -0 0 0 1 1 1 1 1 1 1 0 -1 -1 -1 -0 -0 -0 -0 -0 0 1 1 0 0 1 1 1 1 1 0 0 0 0 0 0 0 nan
nan -0 -0 -0 -0 -0 -0 -0 -0 -0 -0 -1 -1 -0 -0 -1 -1 -1 -2 -2 -2 -1 -0 1 1 0 -1 -1 -1 -1 -1 -1 -0 0 1 2 2 1 1 1 1 1 -0 -1 -1 -0 0 -0 -0 -0 -0 0 1 0 0 1 1 1 1 1 1 0 0 0 0 -0 0 0 nan
nan -0 -1 -1 -0 -0 -0 -0 -0 -0 -1 -1 -1 -0 -1 -1 -1 -1 -2 -2 -1 -0 0 1 0 -0 -1 -2 -1 -1 -1 -1 -0 1 1 2 1 1 1 1 1 0 -0 -1 -0 0 -0 -0 -0 -0 -0 0 0 0 0 1 1 1 1 1 0 0 0 0 0 0 0 0 nan
nan -0 -0 -1 -0 -0 -0 -0 -0 -1 -1 -1 -1 -1 -1 -2 -1 -1 -2 -1 -0 0 1 1 -0 -1 -1 -1 -1 -1 -1 -0 -0 0 1 1 1 1 1 1 0 -0 -0 -0 -0 -0 -1 -1 -1 -1 -0 0 0 1 1 2 1 1 1 0 -0 -0 -0 0 0 0 0 1 nan
nan 0 -0 -0 -0 -0 -0 -0 -0 -1 -1 -0 -0 -1 -1 -2 -1 -1 -1 -0 0 1 1 0 -0 -1 -1 -1 -1 -1 -1 -1 -0 0 1 1 1 0 0 0 0 -0 -0 -0 -0 -1 -1 -1 -1 -0 0 0 1 2 2 2 1 1 0 0 -0 -0 -0 -0 0 0 1 1 nan
nan -0 -1 -1 -1 -1 -1 -1 -1 -1 -1 -0 -0 -1 -2 -1 -1 -1 -1 0 1 1 1 0 -1 -1 -1 -1 -1 -1 -1 -0 0 1 1 1 1 1 1 0 -0 -0 -0 -0 -1 -1 -1 -1 0 1 1 1 2 2 2 1 1 0 0 0 -0 -0 -0 -0 0 0 1 1 nan
nan -1 -1 -1 -1 -1 -1 -1 -1 -1 -1 -1 -0 -1 -1 -0 -0 -0 -0 0 0 0 0 0 -1 -1 -1 -1 -1 -0 0 0 0 1 1 1 1 1 1 0 -0 -0 -1 -1 -1 -1 -0 0 1 1 1 1 2 2 1 1 0 0 0 0 -0 -0 -0 -0 0 0 1 1 nan
nan -1 -0 -0 -1 -1 -1 -1 -1 -0 -0 -0 -1 -1 -1 -0 -0 -0 -0 0 0 0 1 0 0 -1 -1 -1 -1 -0 -0 -0 0 1 2 2 1 1 1 0 -0 -1 -1 -1 -1 -1 0 1 1 1 1 1 2 1 0 0 0 0 -0 -0 -0 -0 -0 0 0 0 1 0 nan
nan -0 -0 -0 -0 -0 -0 -1 -0 -0 -0 -0 -1 -1 -0 -0 -0 -0 0 0 1 1 0 0 1 0 -1 -1 -2 -1 -1 -0 1 1 2 1 1 1 0 -0 -0 -1 -1 -1 -1 -0 0 1 1 0 0 1 1 0 0 0 0 -0 -0 -0 -0 -0 0 0 0 0 0 -0 nan
nan -0 -0 -0 -0 -0 -0 -0 -0 -0 -0 -1 -1 -1 -0 -0 -0 0 1 1 1 1 0 0 0 0 -0 -1 -1 -1 -0 1 2 2 1 1 1 0 0 -0 -0 -1 -1 -1 -0 0 1 1 0 1 1 1 0 -0 -0 -0 0 -0 -0 -0 0 0 0 0 0 0 -0 -1 nan
nan -1 -0 -0 -0 -0 -0 -0 -0 -0 -0 -1 -1 -1 -0 -0 0 1 1 1 1 1 0 -0 -1 -0 0 1 1 2 3 3 2 1 1 0 0 0 -0 -0 -0 -1 -1 -0 0 1 1 1 1 1 1 1 0 -0 -0 -0 0 0 0 0 1 1 1 0 0 -0 -1 -1 nan
nan -0 -0 0 0 -0 -0 -0 -0 -0 -1 -1 -0 -0 0 0 0 1 1 1 0 0 -0 -1 -1 -1 -0 1 3 4 4 3 1 0 0 0 -0 -0 -0 -1 -1 -1 -0 0 1 1 1 1 1 1 1 1 0 0 -0 0 0 0 0 1 1 1 1 0 0 -0 -0 -0 nan
nan -0 0 0 0 0 0 -0 -1 -1 -1 -0 0 0 0 0 1 1 1 0 -0 -1 -1 -1 -1 -0 0 1 3 3 3 1 0 -0 0 0 -0 -1 -1 -1 -0 0 1 2 2 1 1 1 1 1 1 0 0 0 0 0 0 0 0 0 0 1 0 0 0 0 0 0 nan
nan -1 -1 -0 -0 0 -0 -0 -1 -1 -1 -0 0 0 1 1 0 0 0 0 -0 -1 -1 -1 -0 0 1 1 2 2 1 0 -0 -0 0 0 0 -0 -1 -0 0 1 2 2 1 1 1 1 0 0 -0 0 0 0 0 0 0 0 0 0 0 0 0 0 0 0 0 0 nan
nan -1 -1 -1 -0 -0 -1 -1 -1 -1 -0 -0 0 1 1 1 0 0 -0 -0 -0 -0 -0 -1 -0 0 1 1 1 1 0 -0 -0 0 0 1 0 0 0 1 1 1 2 1 1 1 0 0 0 -0 -0 -0 0 0 -0 -0 -0 -0 -0 0 0 0 0 0 0 0 0 0 nan
nan -0 -1 -1 -0 -1 -1 -1 -0 -0 -0 0 0 1 0 0 0 -0 -0 -0 -0 -0 0 0 0 0 1 1 0 -0 -1 -0 0 1 1 1 1 1 1 2 2 1 1 1 1 0 0 -0 -0 -0 -0 -0 -0 -0 -0 -1 -1 -1 -0 -0 0 0 0 0 0 0 0 0 nan
nan -0 -0 -1 -0 -0 -0 0 0 0 0 0 0 0 0 -0 -0 -0 -0 -0 -0 -0 -0 1 1 1 0 -0 -1 -1 -1 0 1 2 2 1 1 1 2 2 1 1 1 1 0 0 -0 -0 -0 0 0 0 -0 -0 -1 -1 -1 -1 -0 -0 -0 0 0 0 0 0 0 0 nan
nan 0 -0 -0 -0 0 1 0 0 0 0 0 0 0 -0 -0 -0 -0 -0 -0 -0 0 0 1 1 1 0 -0 -0 -0 0 1 1 2 1 1 1 1 1 1 1 1 0 0 -0 -0 -0 -0 -0 0 0 0 -0 -0 -0 -1 -1 -0 -0 -0 -0 -0 0 0 -0 -0 0 0 nan
nan 0 0 -0 -0 0 0 0 0 0 0 0 0 -0 -0 -0 -0 -0 -0 -0 -0 0 1 1 1 1 1 1 1 1 1 0 0 0 1 1 1 1 1 1 0 0 -0 -0 -0 0 -0 -0 0 0 0 0 0 0 0 0 0 -0 -0 -0 -0 -0 -0 -0 -0 0 0 0 nan
nan 0 0 0 0 0 0 0 0 0 0 -0 -0 -0 -1 -0 -1 -1 -1 -1 -1 -0 -0 0 1 1 1 1 2 1 1 0 -0 -0 0 1 1 1 1 0 0 0 -0 -0 0 0 0 0 0 0 0 0 0 0 0 1 1 0 0 -0 -0 -1 -1 -1 -0 0 0 0 nan
nan 0 0 0 0 0 0 0 0 0 -0 -0 -1 -1 -1 -1 -1 -1 -1 -1 -1 -0 0 1 1 1 1 1 1 1 1 1 1 0 0 0 0 1 1 1 1 1 0 0 0 0 0 1 1 0 0 0 0 1 1 1 1 1 0 0 -0 -0 -0 -0 -0 -0 -0 0 nan
nan 0 0 0 0 0 0 -0 -0 -0 -0 -1 -1 -1 -1 -1 -1 -0 -0 -0 0 1 1 1 1 1 0 1 0 0 0 1 1 1 1 0 0 0 0 0 1 1 0 0 0 0 0 0 0 0 1 1 1 1 1 1 1 1 0 0 0 0 0 0 0 0 0 0 nan
nan 0 -0 -0 -0 -0 -0 -0 -1 -1 -1 -1 -0 -0 -0 0 0 1 1 1 1 1 2 2 1 1 1 1 0 0 1 1 1 1 0 0 0 0 0 0 0 -0 0 0 0 0 0 0 0 1 1 1 1 1 1 0 0 0 0 0 0 0 0 0 0 0 0 0 nan
nan -0 -0 -0 -0 -0 -1 -1 -1 -1 -0 -0 0 0 1 1 1 2 2 2 1 1 1 1 1 1 0 0 0 1 1 1 0 -0 -1 -0 -0 0 1 1 0 -0 -0 0 0 0 0 0 0 1 1 1 0 0 0 -0 -0 -0 -0 -0 0 0 0 0 0 0 0 0 nan
nan -0 -0 -0 -0 -0 -0 0 0 0 0 1 1 1 1 2 2 2 2 2 1 0 0 -0 -0 -0 -0 -0 1 1 1 1 0 -0 -1 -1 -1 -0 1 1 1 0 0 -0 0 0 0 0 0 0 0 0 0 0 -0 -0 -0 -0 -0 -0 0 0 0 0 0 0 0 0 nan
nan -0 -0 0 0 0 1 1 1 1 1 1 1 1 1 1 2 2 1 1 1 0 -0 -0 -1 -1 -0 0 1 1 0 1 1 1 0 -0 -1 -1 -0 0 0 0 0 0 0 0 0 0 0 0 0 0 0 0 0 -0 -0 -0 0 0 0 0 0 0 0 0 0 0 nan
nan 0 0 0 1 1 1 1 1 1 1 1 1 1 1 1 1 1 1 1 0 -0 -0 -0 -0 0 1 1 0 0 0 1 1 1 1 0 -0 -0 -0 0 0 0 0 0 0 0 0 0 0 0 0 0 0 0 0 0 0 0 0 0 0 0 0 0 0 0 0 0 nan
nan 0 0 0 0 1 1 1 1 1 1 1 1 1 1 0 0 0 0 0 -0 -0 -0 0 1 1 0 0 -0 -0 0 0 1 1 1 1 0 0 0 0 0 0 0 0 0 0 0 0 1 1 1 1 0 0 0 0 0 0 0 0 0 0 0 0 0 0 0 0 nan
nan 0 0 0 0 0 0 0 0 0 0 0 0 0 0 0 -0 -0 -0 -0 -0 0 0 1 1 0 -0 -1 -1 -1 -1 -0 0 1 1 1 1 0 0 0 1 1 1 1 1 1 1 1 1 0 0 -0 -0 -0 0 0 0 0 0 0 0 0 0 0 0 0 0 0 nan
nan 0 0 0 0 0 0 0 0 0 0 0 0 0 0 -0 -1 -1 -1 -0 0 1 1 1 0 -0 -0 -1 -1 -1 -1 -1 -0 0 1 1 1 0 0 0 1 1 1 1 1 0 0 0 -0 -0 -0 -0 -0 0 0 0 0 0 0 0 0 0 0 0 0 0 0 0 nan
nan 0 0 0 0 0 -0 -0 -0 -0 -0 -0 -0 0 0 -0 -0 -0 0 0 0 0 0 0 0 -0 -0 -1 -1 -0 -1 -1 -0 0 1 1 1 0 -0 -0 -0 -0 -0 -0 -0 -0 -0 -0 -0 -0 -0 -0 0 0 0 0 0 0 0 0 0 0 0 -0 -0 0 0 -0 nan
nan 0 -0 0 0 0 -0 -0 -0 -0 -0 -0 -0 -0 -0 0 0 1 1 0 -0 -0 -1 -0 -0 -0 -0 -1 -1 -0 -0 -0 -0 -0 0 1 0 -0 -1 -1 -1 -1 -0 -0 -0 -0 -0 -0 -0 -0 0 0 0 0 -0 -0 -0 0 0 0 0 0 -0 -0 -0 -0 -0 0 nan
nan 0 -0 -0 0 0 0 -0 -0 -0 -0 -0 -0 -0 0 0 0 0 0 -0 -1 -1 -1 -1 -0 -0 -1 -1 -1 -1 -0 0 0 0 0 0 0 -0 -1 -1 -1 -1 -0 -0 -0 -0 0 0 0 0 0 0 -0 -0 -0 -0 -0 0 0 0 0 -0 -0 -0 -0 -0 0 0 nan
nan -0 -0 -0 -0 0 0 -0 -0 -0 -1 -1 -1 -0 -0 -0 -0 -0 -0 -0 -1 -2 -1 -1 -1 -1 -1 -2 -2 -1 -0 0 0 0 0 0 0 0 -0 -0 -1 -1 -0 0 0 0 0 0 0 0 0 0 0 0 0 0 0 0 0 -0 -0 -0 -0 0 0 0 0 0 nan
nan -0 -0 -0 -0 -0 0 0 0 -0 -0 -1 -1 -1 -1 -1 -1 -1 -0 -0 -1 -1 -1 -1 -0 -0 -1 -1 -2 -2 -1 -0 -0 -0 -0 -0 -0 0 0 -0 -0 -0 -0 0 0 0 -0 -0 -0 -0 -0 0 0 0 0 0 0 -0 -0 -0 -0 -0 0 0 0 0 0 0 nan
nan nan nan nan nan nan nan nan nan nan nan nan nan nan nan nan nan nan nan nan nan nan nan nan nan nan nan nan nan nan nan nan nan nan nan nan nan nan nan nan nan nan nan nan nan nan nan nan nan nan nan nan nan nan nan nan nan nan nan nan nan nan nan nan nan nan nan nan nan
Wind_Speed
36 36 36 36 36 35 33 31 29 28 28 27 26 25 25 26 26 26 27 29 34 39 39 36 37 41 46 48 49 50 51 51 51 50 49 49 48 47 47 47 47 47 47 47 46 43 41 38 35 34 34 36 37 35 31 30 30 30 29 27 25 23 22 21 21 21 22 22 22
35 35 35 35 35 34 32 30 28 28 28 27 26 25 25 25 24 25 26 28 33 38 38 35 38 42 46 47 48 49 50 50 50 49 48 47 46 45 45 45 46 46 47 47 45 43 39 37 35 35 35 36 35 32 30 28 28 27 26 25 24 22 22 21 21 21 21 22 21
35 35 34 34 34 33 31 29 28 28 27 26 26 24 24 23 23 24 26 29 33 36 37 35 38 42 45 47 47 48 48 48 48 47 46 45 44 44 44 44 45 46 46 46 44 40 38 37 36 36 35 35 33 29 27 26 26 25 25 24 23 22 21 21 21 21 21 22 21
34 33 33 33 32 31 30 28 28 27 27 26 25 24 23 22 22 24 26 30 33 35 36 36 39 42 45 46 47 47 47 46 45 44 44 44 43 43 43 43 44 45 46 44 41 38 36 37 37 36 34 32 29 26 24 24 24 24 23 23 22 22 21 21 21 21 22 22 21
32 31 30 30 30 29 28 27 27 27 26 25 24 23 22 22 22 25 28 31 34 35 35 35 39 42 44 46 47 46 46 45 43 42 42 43 43 42 42 43 44 45 44 42 38 36 36 37 36 35 32 29 26 23 22 22 22 23 23 23 22 22 21 21 21 22 22 21 21
29 27 26 27 28 28 27 26 26 26 25 24 23 23 23 23 23 25 29 32 34 35 34 35 39 42 44 46 47 46 45 44 43 42 42 43 43 43 43 43 44 44 42 39 37 36 37 37 36 34 30 27 24 22 21 21 22 23 23 23 23 22 21 21 21 21 21 21 21
27 25 24 25 26 26 26 26 25 25 24 23 23 23 23 23 24 26 30 32 33 33 34 36 40 43 45 46 47 46 45 44 43 43 43 44 44 44 44 44 43 42 40 37 36 37 37 37 35 32 28 24 22 22 22 22 22 23 23 23 23 22 22 21 21 21 21 21 21
26 25 25 26 25 25 25 25 25 24 23 23 23 23 23 23 24 27 30 32 32 32 34 37 41 44 45 47 47 46 45 44 43 43 44 44 44 44 43 43 42 40 38 36 36 37 37 36 33 29 25 23 22 22 22 23 23 23 24 24 23 22 22 21 20 20 20 20 20
25 26 26 26 25 24 24 24 23 23 24 24 23 23 23 24 25 28 30 31 31 32 35 38 42 44 46 46 46 46 45 44 44 44 44 44 43 43 42 41 39 38 36 36 36 37 36 33 30 26 23 22 22 23 23 23 24 24 24 23 23 22 21 21 20 19 19 20 21
26 26 26 24 22 21 21 22 22 23 23 23 22 23 23 24 26 28 29 30 31 33 36 40 43 45 46 46 45 45 44 44 44 44 44 43 42 41 40 39 37 37 36 36 37 36 34 30 27 24 22 22 23 23 23 24 24 24 23 23 23 22 21 20 20 19 19 20 21
27 26 23 21 19 18 19 20 21 22 22 21 22 23 24 25 26 27 28 29 32 35 39 42 44 45 45 45 45 44 43 43 44 44 43 43 42 40 38 37 36 36 37 37 37 35 32 27 24 22 22 23 23 23 23 24 24 23 23 23 22 22 21 20 20 19 20 21 22
26 23 21 19 18 17 18 19 21 21 21 20 22 24 25 25 26 27 28 30 33 36 40 42 43 44 44 44 44 43 43 43 43 43 43 42 41 39 37 36 35 36 37 38 37 35 31 25 22 22 23 23 23 23 23 23 23 23 23 22 22 21 20 20 20 20 20 21 22
23 21 19 19 18 19 19 20 20 20 20 20 22 24 25 26 28 28 29 30 34 37 40 42 43 43 43 43 42 42 42 43 43 43 43 42 39 37 36 35 35 36 37 37 37 34 29 24 22 22 23 23 23 22 22 23 23 23 22 22 21 21 20 20 20 20 21 22 23
20 19 18 18 19 20 20 19 19 19 20 21 23 24 25 27 28 28 29 31 35 39 42 43 43 42 42 41 40 40 40 42 43 43 42 40 38 36 35 35 35 36 37 36 34 31 27 24 22 22 22 22 22 22 22 22 22 22 22 21 21 20 19 19 20 20 21 22 23
17 17 17 17 19 19 19 18 18 19 21 22 24 25 26 27 28 29 30 33 38 41 44 44 44 43 42 40 39 39 39 41 42 42 41 38 36 35 35 35 35 36 36 35 31 28 25 22 21 21 21 21 21 21 21 21 21 21 20 20 19 19 18 19 19 20 21 22 23
16 16 16 18 19 19 19 18 19 21 22 23 25 26 27 28 29 31 33 37 40 44 45 45 45 44 43 42 41 40 41 41 42 41 40 38 36 35 34 34 35 35 35 33 29 26 22 20 19 20 20 20 20 20 20 20 20 20 19 18 18 17 17 18 18 19 20 20 21
16 17 18 19 19 19 18 19 20 22 23 23 25 26 28 30 32 35 38 40 43 45 46 46 46 45 44 43 43 42 42 41 41 41 39 37 35 34 34 33 33 33 33 31 27 23 20 18 20 20 20 19 19 19 20 20 19 19 18 17 17 17 17 17 18 18 18 18 19
18 18 18 19 19 19 19 20 21 22 23 23 25 28 30 33 37 39 41 43 44 45 46 46 46 45 45 44 43 42 41 41 41 40 39 36 34 33 32 32 31 30 29 27 24 21 20 20 21 22 21 19 18 19 19 19 18 18 17 17 16 17 17 17 17 17 16 16 16
19 19 18 18 18 19 19 20 21 22 23 24 27 31 34 37 40 42 43 44 44 45 46 46 45 45 44 43 42 41 40 39 40 40 38 35 32 31 30 29 28 27 25 23 20 20 20 22 23 23 21 20 19 19 19 19 18 17 17 17 17 18 18 17 16 15 14 13 13
19 19 18 18 19 19 19 20 21 22 23 25 30 35 38 41 42 43 44 44 45 45 45 45 44 43 42 42 41 39 38 38 39 38 36 33 30 29 28 27 26 24 22 20 19 19 21 22 23 22 21 20 20 20 20 19 18 18 18 18 18 18 18 16 15 14 13 12 12
19 18 18 19 19 19 20 21 22 23 24 28 33 38 41 43 43 44 44 44 45 45 45 44 43 42 41 40 39 38 37 37 37 35 33 30 29 28 27 25 24 22 20 20 19 20 21 22 22 21 20 20 20 20 20 20 20 20 20 20 19 18 17 16 15 14 13 12 12
18 18 18 19 19 20 21 22 23 24 26 31 36 40 42 43 44 44 44 44 45 44 43 42 41 40 39 39 38 37 36 35 34 32 30 29 28 26 25 24 22 21 20 19 19 20 22 22 22 21 20 20 20 20 20 21 21 21 21 20 19 18 17 16 15 14 13 12 12
18 18 18 19 20 21 22 23 24 26 29 34 38 41 42 43 44 44 44 44 44 43 42 40 39 38 38 37 37 36 35 33 31 30 29 28 27 26 24 23 21 20 20 19 20 21 22 22 21 21 20 20 21 21 21 21 21 21 21 20 19 18 17 16 15 14 13 13 12
19 20 20 20 22 23 24 24 26 30 34 37 40 41 42 43 44 44 44 44 43 41 39 39 38 37 36 36 35 34 33 32 31 30 30 28 26 25 24 23 21 20 20 20 20 21 21 21 21 21 21 21 22 22 22 21 21 21 20 19 19 18 17 16 15 14 13 12 12
20 21 23 25 27 27 27 28 31 35 38 39 40 41 42 42 43 42 42 41 39 38 37 37 36 36 36 35 33 32 32 31 31 30 29 28 26 25 24 22 21 20 20 20 19 19 19 20 20 21 22 22 23 23 22 21 20 20 19 18 17 17 16 15 14 14 13 13 12
20 23 27 31 32 32 32 34 36 38 39 40 40 40 40 40 39 38 37 36 35 34 35 35 36 36 35 34 33 32 32 31 30 30 29 28 27 26 24 23 21 20 19 18 17 17 17 18 19 20 22 23 23 23 22 21 20 19 18 17 16 15 14 14 14 14 13 13 12
20 25 30 34 35 35 36 37 38 39 38 38 37 36 36 35 34 33 33 32 33 34 35 36 36 36 35 34 34 33 32 31 30 29 29 28 28 27 26 25 22 19 17 16 16 16 16 17 18 20 21 22 22 22 21 21 20 19 18 16 15 14 13 13 13 13 13 12 11
22 29 33 35 36 36 37 37 37 37 36 35 34 33 32 32 32 32 33 33 34 36 37 37 38 37 36 35 35 34 32 31 29 29 29 29 29 29 29 27 23 19 16 15 15 15 16 17 18 19 20 20 20 19 19 19 19 18 16 15 14 13 12 12 12 12 11 11 10
27 32 35 35 36 36 36 36 35 34 34 33 32 32 32 33 33 34 35 36 37 38 38 39 39 38 37 36 35 33 31 30 29 29 30 30 31 31 30 28 24 20 17 16 15 16 16 17 19 19 19 18 18 17 16 16 16 15 14 13 13 12 12 11 11 10 9 8 8
30 34 35 35 35 35 35 35 34 34 33 33 33 33 34 35 36 37 37 38 39 39 39 39 39 38 36 35 33 32 31 30 31 31 32 32 32 31 29 26 23 19 17 17 16 17 17 18 19 18 18 17 15 14 14 13 13 13 13 13 12 12 11 11 10 9 8 7 6
32 34 34 34 34 34 34 34 34 34 34 34 35 35 36 37 38 38 39 39 39 39 39 38 37 36 34 33 32 32 32 32 33 33 33 32 30 28 26 23 21 19 18 17 18 18 18 18 18 17 16 15 13 12 12 12 12 12 13 13 12 12 11 10 9 8 7 6 5
33 33 33 33 34 34 34 35 35 35 36 36 37 37 38 38 39 39 39 39 39 38 37 36 35 33 33 32 32 33 34 34 34 33 31 29 26 24 23 21 20 19 19 19 18 18 18 18 17 16 14 13 12 11 12 12 13 13 13 13 12 12 11 10 8 7 6 5 4
33 32 33 33 34 35 35 36 36 37 37 38 38 39 39 39 39 39 38 38 37 36 34 33 32 32 33 34 35 35 36 35 33 31 29 26 24 22 20 20 20 19 19 19 19 18 17 17 16 15 14 13 13 13 13 14 14 14 13 13 12 11 10 9 8 7 6 5 4
33 33 33 34 35 36 36 37 37 37 38 39 39 39 39 39 39 38 37 35 34 32 31 31 32 33 35 37 38 38 36 34 31 28 26 25 23 22 21 20 21 20 20 20 19 19 18 17 16 16 15 15 15 15 15 15 14 14 13 12 11 10 10 9 8 7 6 5 4
33 34 34 35 36 37 37 37 38 38 39 39 39 39 39 38 37 36 34 33 32 31 31 32 34 36 38 38 38 36 34 31 28 25 24 24 24 24 23 23 23 22 22 21 20 19 18 17 16 16 16 16 16 16 15 15 14 13 12 11 10 10 9 9 8 8 6 5 3
34 35 36 37 37 37 38 38 38 39 39 39 39 38 37 36 34 33 32 32 32 33 34 36 37 38 38 36 34 32 29 27 25 24 24 24 25 25 25 24 23 22 20 19 18 16 16 16 16 17 17 17 17 16 15 14 13 12 11 10 10 10 10 9 9 7 6 4 2
35 37 38 38 38 38 38 38 38 38 38 38 37 37 35 34 32 31 31 33 34 36 38 39 39 38 36 33 31 29 27 26 25 25 25 25 25 24 23 21 20 19 18 17 16 15 16 17 18 18 17 17 16 15 14 13 12 11 10 10 10 10 10 9 8 6 4 2 1
36 37 38 39 39 38 38 38 37 37 37 36 35 34 32 32 32 32 33 35 37 39 40 40 39 37 35 33 32 31 29 29 28 27 26 25 23 22 20 19 18 17 17 17 17 18 19 19 18 18 17 16 14 13 12 11 10 9 9 9 10 9 9 7 6 4 3 2 2
35 36 37 38 38 38 37 37 36 35 35 34 33 31 31 32 32 33 35 36 39 40 40 40 39 37 36 35 34 33 31 30 29 27 26 25 23 22 20 20 19 19 19 20 21 21 20 19 18 17 15 14 12 10 9 8 8 8 8 9 9 8 7 6 4 3 3 3 3
33 34 35 36 37 37 36 35 35 34 33 32 32 32 32 32 33 34 35 36 37 37 37 37 36 36 36 35 34 33 31 30 28 27 25 24 23 22 21 21 21 22 23 23 22 21 20 19 17 16 14 12 10 8 7 7 7 7 7 7 7 6 5 4 4 4 4 4 5
31 32 33 34 34 35 35 34 33 32 32 32 32 32 32 32 32 32 33 33 33 33 32 32 32 32 33 33 32 31 30 29 28 26 25 24 23 23 22 23 23 23 23 23 21 20 19 18 16 14 12 11 9 7 6 6 6 6 6 5 5 4 4 4 4 4 5 5 5
Wind_Direction
191 193 195 197 200 202 205 207 210 211 211 210 208 209 210 213 212 209 205 201 197 195 195 197 195 193 192 192 193 194 195 197 198 199 201 203 206 207 208 209 210 211 212 212 212 209 206 204 205 209 212 215 215 216 217 219 220 221 221 223 223 222 221 219 217 215 213 213 213
191 192 194 197 199 201 204 206 207 208 208 209 208 208 209 210 209 207 204 200 197 195 195 196 194 192 191 192 193 194 195 196 198 199 201 204 207 209 209 209 210 211 212 211 209 206 205 205 207 210 213 215 215 215 217 218 219 220 221 222 221 219 217 216 214 213 212 211 211
189 190 193 196 199 201 203 204 205 204 205 206 207 208 208 209 207 205 202 200 197 195 195 195 192 191 191 192 193 194 196 197 198 200 202 205 207 209 209 209 210 211 210 209 207 206 206 207 208 210 212 215 215 216 217 217 218 219 220 220 218 215 213 212 211 210 210 209 210
185 188 192 196 199 201 202 202 202 202 203 205 206 207 206 206 205 203 201 199 196 196 196 194 190 189 191 192 193 194 196 198 200 201 203 205 207 208 209 210 210 210 209 207 206 206 206 207 207 208 211 214 216 218 217 216 217 217 218 217 214 212 210 208 208 207 207 208 209
181 186 192 197 200 201 201 200 199 200 202 204 205 206 204 202 202 201 200 198 196 197 197 195 190 188 189 191 193 195 196 198 200 201 203 205 208 209 209 209 209 208 207 205 204 205 206 206 206 207 210 214 218 219 218 216 216 216 215 213 211 208 207 206 205 205 205 207 208
179 185 191 196 199 200 200 198 197 198 201 203 205 205 202 200 200 199 198 198 197 198 198 195 190 187 188 191 194 196 197 198 200 201 203 206 208 209 209 209 208 207 205 203 204 205 206 205 205 206 209 213 216 217 216 216 215 214 212 209 207 205 203 203 203 203 203 205 207
179 183 186 190 195 197 197 195 195 197 200 203 206 204 200 197 197 196 195 197 197 198 197 194 189 186 187 191 194 196 198 198 199 201 203 206 208 209 209 209 208 206 203 202 203 204 204 203 204 206 208 212 215 215 215 214 213 211 209 205 202 201 200 201 200 201 202 203 205
181 183 184 186 190 193 194 194 195 197 200 203 205 202 197 193 192 191 192 195 196 197 196 192 188 187 189 191 194 196 197 198 199 200 203 206 208 208 208 208 206 204 202 202 202 203 202 202 203 205 207 211 214 214 213 212 211 208 205 202 199 197 197 198 198 199 200 202 205
185 185 185 185 187 189 192 193 196 198 200 202 204 199 192 189 187 187 190 194 196 197 195 191 189 189 190 192 194 196 197 198 198 199 202 205 207 207 207 206 204 201 200 200 201 201 201 200 201 203 206 209 211 212 211 209 207 205 202 198 195 193 193 195 196 198 200 202 204
188 187 186 183 183 185 190 194 197 199 201 203 200 194 188 186 184 186 190 194 195 194 193 190 189 189 190 193 195 197 197 197 198 199 202 205 206 207 207 205 202 199 198 198 199 199 199 199 199 200 203 206 209 209 208 206 204 201 198 195 192 191 190 191 194 196 199 201 203
187 185 182 178 178 184 190 195 197 199 202 203 196 190 186 183 181 185 190 193 192 190 189 189 189 189 191 193 195 197 197 197 198 199 202 204 205 206 206 204 200 198 197 198 198 198 197 197 197 196 198 204 206 207 205 203 201 198 194 192 190 189 189 189 191 195 198 199 201
182 179 176 175 179 186 192 194 196 198 200 199 193 188 183 180 181 185 189 190 189 188 188 188 189 190 192 193 195 196 196 196 198 200 202 203 205 205 205 202 200 198 198 199 200 200 198 196 191 191 195 201 204 204 203 200 197 194 192 190 189 189 189 189 191 193 196 198 199
174 174 176 180 183 185 188 190 192 194 195 192 190 186 181 178 181 185 188 188 188 187 186 187 189 192 193 194 194 194 195 196 198 200 202 203 203 203 202 200 199 199 200 201 203 203 200 193 186 187 193 199 200 200 199 197 194 191 190 189 188 189 189 190 190 192 194 196 197
174 178 182 184 181 179 181 185 188 189 187 185 186 185 181 178 182 186 188 189 187 185 184 184 187 191 194 196 196 196 196 197 199 200 201 201 201 200 199 198 199 200 201 203 203 201 195 188 184 186 192 195 195 194 194 194 192 190 189 188 188 188 189 189 190 190 192 195 197
182 185 185 181 175 174 177 181 184 183 181 181 183 184 183 181 184 187 189 188 187 185 183 182 184 188 193 196 199 199 200 200 200 199 199 199 198 197 196 196 198 200 201 202 199 193 188 184 183 185 188 189 189 188 189 190 190 189 188 188 187 187 187 188 188 190 192 195 198
188 184 178 173 171 172 176 179 178 178 179 181 183 184 184 183 185 187 188 186 185 184 182 182 184 187 191 195 198 201 201 200 198 197 196 196 194 193 193 195 196 198 199 197 192 186 182 180 180 182 184 185 184 183 184 186 186 187 186 186 186 186 185 185 186 188 191 195 199
177 171 167 167 169 172 174 174 174 176 180 183 183 183 183 183 184 184 185 184 184 183 182 183 186 188 191 193 196 197 198 196 195 195 195 194 193 192 191 192 193 194 194 190 184 177 172 172 176 180 182 182 180 179 180 181 182 182 183 183 184 183 182 183 184 187 190 194 199
161 160 161 163 166 168 169 170 172 177 181 184 182 181 182 182 181 181 182 184 184 183 183 185 188 190 191 192 192 193 193 192 192 193 195 195 194 193 191 190 189 187 185 181 173 165 162 167 175 179 180 178 176 176 176 177 177 176 177 178 179 179 179 180 182 184 187 190 195
153 155 156 159 162 164 166 169 173 178 182 183 180 179 179 179 179 179 180 182 185 186 186 186 188 190 191 191 190 189 189 189 191 193 195 197 196 194 191 187 182 177 172 166 157 154 159 168 174 176 176 174 173 173 172 172 170 170 171 173 175 175 176 177 179 180 182 185 189
149 149 151 156 160 163 167 171 175 179 181 180 178 176 176 176 178 179 179 181 184 187 188 187 188 189 189 190 188 187 187 189 192 194 196 196 194 191 186 181 173 165 157 151 148 153 162 169 173 173 172 170 169 169 168 166 164 165 167 170 172 173 174 175 175 176 178 181 185
145 143 145 152 159 165 170 174 177 179 179 177 175 173 173 174 177 178 180 182 184 186 187 187 188 188 188 188 187 186 187 189 192 194 194 192 188 184 179 173 165 156 148 145 148 157 166 170 171 170 168 166 165 164 163 161 161 163 166 169 171 172 172 173 173 174 177 180 186
140 136 139 150 160 168 173 176 177 178 177 175 173 171 171 173 176 178 181 183 184 185 185 186 187 188 188 189 188 188 188 189 190 190 188 184 179 174 170 164 157 150 146 147 155 164 170 171 170 167 164 162 162 161 161 161 163 165 167 169 170 171 171 172 173 175 179 184 190
133 130 136 150 163 171 174 175 176 175 174 172 171 170 170 172 175 178 180 182 182 183 183 184 186 187 188 190 190 189 188 186 184 182 179 174 169 164 160 156 151 148 148 153 162 169 172 170 167 164 161 160 161 161 162 164 165 166 167 169 170 171 172 172 174 179 184 188 193
127 128 137 150 165 172 173 174 174 173 172 170 169 169 170 172 175 177 178 179 179 179 180 182 184 185 187 188 189 188 185 182 178 174 170 164 159 155 152 149 148 149 154 161 169 172 172 168 164 161 160 161 162 163 164 165 166 166 167 169 171 172 173 174 178 183 188 191 196
121 127 139 153 164 170 172 172 171 170 170 169 169 169 170 171 173 175 175 176 176 178 179 180 182 182 183 183 184 183 181 179 174 168 162 155 150 147 145 145 147 152 159 166 172 173 171 166 162 160 161 162 163 164 164 165 165 165 168 171 173 174 176 179 183 186 190 193 197
117 128 143 156 162 166 168 169 168 168 167 168 168 168 169 170 171 172 173 174 176 178 180 180 180 179 178 178 178 178 177 175 169 161 154 149 145 143 142 142 144 152 161 168 171 172 171 167 164 162 163 164 165 164 163 163 164 167 170 173 176 179 183 186 188 189 191 194 196
121 133 146 156 159 160 163 165 165 165 165 166 166 166 167 169 170 172 174 175 177 177 177 177 176 175 175 175 175 175 172 168 161 153 148 145 143 141 140 138 141 150 161 168 170 170 169 167 166 165 165 166 165 164 163 164 166 169 172 176 180 185 190 193 193 193 193 194 196
130 140 149 155 156 158 161 163 163 164 165 166 166 168 169 170 172 173 174 175 175 174 172 171 171 172 172 173 173 171 166 159 152 146 143 142 140 138 136 136 139 148 160 168 169 169 168 167 166 166 166 166 164 164 164 166 168 171 174 177 183 188 192 194 195 194 194 195 199
138 145 151 153 155 158 161 163 164 165 167 168 169 170 170 171 172 173 173 173 172 170 168 167 168 169 169 169 168 163 156 148 143 141 139 138 136 134 133 134 139 149 160 167 168 167 166 167 167 166 165 164 164 165 166 169 171 173 176 179 182 186 189 190 191 191 193 197 204
144 148 152 154 156 159 161 163 165 166 166 167 168 168 169 169 169 169 169 169 168 168 167 167 167 167 167 165 160 152 145 140 138 136 134 132 131 131 132 136 142 151 160 165 165 165 165 165 165 164 164 164 165 167 169 172 175 177 178 179 181 182 183 184 186 187 191 195 201
148 152 154 155 156 157 159 160 161 162 162 163 163 164 165 165 165 165 166 166 167 167 168 168 167 165 162 157 149 143 139 137 134 132 131 131 132 134 137 140 146 153 159 161 162 163 163 163 163 162 163 165 167 170 174 177 179 180 179 178 178 178 178 180 182 184 186 188 191
151 154 155 154 153 153 154 154 155 156 157 158 160 161 161 161 162 163 164 165 166 166 166 166 163 159 153 147 142 139 136 135 133 133 133 135 137 139 142 145 149 152 155 157 158 159 159 159 159 160 163 166 171 177 181 183 182 179 178 176 175 175 176 178 179 180 178 176 176
152 154 153 151 150 149 150 150 151 152 153 155 157 157 158 159 160 161 162 164 165 164 163 160 156 150 144 141 138 136 135 135 136 137 138 137 137 140 143 146 148 149 151 151 152 153 154 155 159 162 166 171 175 181 184 184 180 178 176 174 173 173 174 175 176 176 173 168 163
150 151 150 149 148 147 148 148 150 151 152 153 155 156 157 158 158 159 160 162 162 160 157 151 146 142 139 137 135 134 135 136 139 141 140 136 135 136 140 142 143 144 145 146 147 149 151 155 159 162 166 171 178 182 183 181 178 176 175 174 173 173 173 174 175 175 175 171 167
148 147 146 146 147 147 148 149 151 152 153 153 153 155 157 158 159 160 160 159 156 152 147 142 139 136 135 133 132 134 136 138 140 141 138 134 133 135 137 138 139 140 141 142 143 145 147 150 156 162 169 175 179 181 180 178 177 176 175 175 174 174 174 175 176 177 178 179 180
146 145 144 145 146 148 149 150 152 153 153 152 153 154 156 158 159 158 156 153 148 143 140 137 135 133 133 132 133 133 134 135 135 135 133 132 133 134 135 136 137 138 137 137 138 141 146 153 162 170 174 177 178 177 177 176 176 176 176 176 177 177 177 177 178 180 182 187 204
144 144 144 144 146 148 150 152 153 153 152 153 154 155 155 155 153 151 148 145 141 138 136 134 133 132 131 130 129 128 126 126 127 129 130 131 132 133 133 134 134 134 134 136 142 150 159 166 171 174 175 175 176 175 175 175 176 176 178 179 181 181 180 180 181 182 188 203 267
144 145 145 146 147 149 152 153 153 153 152 153 153 151 149 146 143 141 140 139 137 135 134 134 133 131 128 126 124 124 124 125 127 129 130 131 132 132 133 134 135 138 144 152 160 167 170 172 173 173 173 174 174 173 173 174 175 177 179 181 183 183 182 181 183 190 206 246 281
146 146 147 148 149 151 153 154 154 154 153 150 145 140 136 134 134 134 135 135 135 135 135 135 134 131 129 127 127 128 129 131 131 132 132 133 134 135 138 142 147 154 162 168 171 172 172 172 171 171 172 172 172 171 169 169 171 174 178 181 183 183 183 184 192 207 230 254 267
149 149 149 150 151 153 154 154 154 153 149 142 135 129 127 127 129 132 135 137 138 138 138 138 136 135 133 132 131 132 134 135 136 136 136 138 141 145 150 156 163 168 171 172 172 171 171 171 171 170 170 169 168 167 164 163 165 167 171 174 176 179 185 196 208 222 237 247 254
153 153 152 152 153 154 154 154 152 148 142 135 129 127 126 128 131 135 138 141 141 141 140 138 137 136 135 135 135 136 138 140 141 142 144 148 152 158 164 168 171 172 172 171 171 170 171 170 170 169 167 165 163 161 157 156 157 159 160 164 167 175 189 207 220 227 234 242 248
Height
1365 1367 1370 1372 1374 1376 1378 1380 1382 1384 1386 1387 1389 1391 1392 1394 1396 1398 1399 1401 1403 1405 1407 1409 1410 1411 1412 1413 1415 1416 1418 1420 1422 1425 1427 1429 1430 1433 1435 1437 1439 1440 1442 1445 1447 1450 1453 1457 1459 1461 1462 1463 1464 1466 1468 1470 1472 1473 1475 1476 1478 1479 1480 1481 1481 1482 1483 1484 1485
1365 1367 1370 1372 1374 1376 1378 1380 1382 1384 1385 1387 1389 1390 1392 1394 1396 1398 1400 1402 1403 1405 1407 1408 1409 1410 1411 1413 1415 1416 1418 1420 1422 1425 1427 1429 1431 1433 1435 1437 1439 1440 1442 1445 1447 1450 1454 1456 1459 1460 1461 1462 1463 1465 1467 1469 1471 1472 1474 1475 1477 1478 1479 1480 1481 1481 1483 1484 1485
1365 1367 1370 1372 1374 1375 1377 1379 1381 1383 1385 1387 1389 1391 1393 1394 1396 1398 1400 1402 1403 1404 1406 1408 1409 1410 1411 1413 1415 1416 1418 1420 1423 1425 1427 1430 1432 1434 1435 1437 1439 1441 1443 1445 1448 1451 1454 1456 1458 1459 1460 1462 1463 1464 1466 1468 1470 1472 1473 1475 1476 1477 1478 1479 1480 1481 1482 1484 1485
1365 1368 1370 1372 1374 1375 1377 1379 1381 1383 1385 1387 1389 1391 1393 1395 1396 1398 1400 1401 1402 1404 1406 1407 1408 1410 1411 1413 1414 1416 1419 1421 1423 1425 1428 1430 1432 1434 1435 1437 1439 1441 1443 1446 1449 1452 1454 1455 1457 1459 1460 1461 1462 1464 1465 1467 1469 1471 1472 1474 1475 1476 1477 1479 1480 1481 1482 1484 1485
1366 1368 1370 1372 1374 1375 1377 1379 1381 1383 1385 1387 1389 1391 1393 1395 1396 1398 1399 1400 1402 1404 1405 1407 1408 1410 1411 1413 1414 1416 1419 1422 1424 1426 1429 1430 1432 1434 1435 1437 1439 1441 1443 1446 1450 1452 1453 1455 1456 1458 1460 1461 1462 1463 1465 1467 1469 1470 1472 1473 1475 1476 1477 1478 1479 1480 1482 1483 1485
1366 1369 1371 1373 1375 1376 1378 1380 1381 1384 1385 1387 1389 1391 1393 1394 1396 1397 1398 1400 1401 1403 1405 1407 1408 1410 1411 1412 1415 1417 1420 1422 1424 1426 1429 1430 1432 1434 1435 1437 1439 1441 1444 1447 1449 1451 1453 1454 1456 1457 1459 1460 1461 1463 1465 1467 1468 1470 1471 1472 1474 1475 1476 1478 1479 1480 1482 1483 1485
1366 1369 1370 1373 1375 1376 1378 1380 1382 1384 1386 1387 1389 1390 1392 1394 1395 1397 1398 1399 1401 1403 1405 1406 1408 1409 1410 1412 1415 1417 1420 1422 1425 1427 1429 1431 1432 1434 1435 1437 1439 1441 1444 1447 1449 1450 1452 1454 1455 1457 1458 1459 1461 1463 1465 1466 1468 1469 1470 1472 1473 1475 1476 1478 1479 1480 1482 1483 1484
1367 1368 1370 1372 1374 1376 1378 1380 1382 1384 1385 1387 1389 1390 1392 1394 1395 1397 1398 1399 1401 1402 1404 1406 1407 1409 1410 1412 1415 1417 1420 1422 1425 1427 1429 1431 1432 1434 1435 1437 1439 1442 1444 1446 1448 1450 1451 1453 1455 1456 1457 1459 1460 1462 1464 1466 1467 1469 1470 1471 1473 1475 1476 1478 1479 1480 1482 1483 1484
1367 1369 1370 1372 1374 1376 1378 1380 1382 1383 1385 1387 1388 1390 1392 1394 1395 1396 1397 1399 1400 1402 1404 1406 1407 1409 1411 1413 1415 1417 1420 1422 1425 1427 1430 1431 1433 1434 1436 1438 1440 1442 1444 1446 1447 1449 1451 1453 1454 1455 1457 1459 1460 1462 1464 1465 1467 1469 1470 1471 1473 1475 1476 1478 1479 1480 1482 1483 1484
1367 1369 1371 1373 1375 1376 1378 1380 1381 1383 1385 1387 1388 1390 1392 1394 1395 1396 1397 1398 1400 1402 1404 1406 1408 1409 1411 1413 1415 1418 1420 1423 1425 1428 1430 1432 1433 1435 1436 1438 1440 1442 1444 1445 1447 1449 1451 1452 1454 1455 1457 1459 1460 1462 1464 1465 1467 1469 1470 1472 1473 1475 1476 1477 1479 1480 1482 1483 1485
1367 1369 1371 1373 1375 1377 1378 1380 1381 1383 1385 1387 1388 1390 1393 1394 1395 1396 1397 1398 1400 1402 1404 1406 1408 1410 1411 1414 1416 1419 1421 1424 1426 1428 1430 1432 1434 1435 1437 1439 1441 1442 1444 1445 1447 1449 1450 1452 1453 1455 1457 1459 1461 1462 1464 1465 1467 1469 1470 1472 1473 1475 1476 1477 1479 1480 1482 1483 1485
1368 1370 1371 1373 1375 1377 1378 1380 1381 1383 1385 1387 1388 1390 1392 1394 1395 1395 1397 1399 1400 1402 1405 1406 1408 1410 1412 1414 1416 1419 1422 1424 1426 1428 1430 1432 1434 1436 1438 1440 1441 1443 1444 1445 1446 1448 1450 1452 1453 1455 1458 1460 1461 1463 1465 1466 1468 1469 1470 1472 1473 1475 1476 1477 1479 1480 1482 1483 1485
1368 1370 1371 1373 1375 1376 1378 1380 1382 1383 1385 1387 1389 1390 1392 1393 1394 1395 1397 1399 1401 1403 1405 1407 1409 1411 1413 1415 1417 1420 1422 1424 1425 1427 1430 1432 1434 1436 1438 1440 1441 1443 1444 1445 1446 1448 1450 1452 1454 1456 1458 1460 1462 1463 1465 1467 1468 1469 1470 1472 1473 1475 1476 1478 1479 1480 1482 1483 1485
1368 1370 1371 1373 1375 1376 1378 1380 1382 1384 1385 1387 1389 1390 1392 1393 1394 1396 1397 1399 1401 1403 1405 1408 1410 1412 1414 1415 1417 1420 1421 1423 1425 1427 1430 1432 1434 1436 1438 1440 1441 1443 1444 1445 1446 1449 1451 1453 1454 1457 1459 1461 1462 1464 1465 1467 1468 1470 1471 1472 1474 1475 1476 1478 1479 1480 1482 1483 1485
1368 1369 1371 1373 1375 1377 1379 1380 1382 1384 1385 1387 1389 1390 1392 1393 1395 1396 1398 1400 1401 1403 1405 1408 1410 1412 1414 1416 1418 1420 1421 1423 1425 1427 1430 1432 1434 1436 1438 1440 1441 1442 1444 1445 1447 1449 1451 1453 1455 1457 1460 1461 1462 1464 1466 1467 1469 1470 1471 1473 1474 1475 1476 1478 1479 1480 1482 1483 1485
1368 1370 1372 1374 1375 1377 1379 1380 1382 1384 1386 1387 1389 1390 1392 1393 1395 1396 1398 1400 1402 1404 1406 1408 1410 1412 1414 1416 1418 1420 1421 1423 1425 1427 1430 1432 1434 1436 1439 1440 1441 1442 1444 1445 1448 1450 1451 1453 1455 1458 1460 1461 1463 1465 1466 1468 1469 1471 1472 1473 1475 1476 1477 1478 1480 1481 1482 1484 1485
1369 1371 1373 1375 1376 1377 1379 1381 1383 1385 1386 1388 1389 1390 1392 1393 1395 1396 1398 1400 1402 1404 1406 1408 1410 1412 1414 1416 1418 1420 1421 1423 1425 1428 1430 1432 1434 1437 1439 1440 1441 1443 1445 1446 1448 1449 1451 1453 1456 1458 1460 1462 1463 1465 1466 1468 1470 1471 1472 1474 1475 1476 1478 1479 1480 1482 1483 1484 1485
1371 1372 1373 1375 1376 1378 1380 1381 1383 1385 1386 1388 1389 1390 1392 1393 1395 1397 1399 1400 1403 1405 1407 1409 1411 1413 1414 1416 1418 1420 1422 1424 1426 1428 1430 1433 1435 1437 1439 1441 1442 1444 1446 1447 1448 1450 1451 1454 1456 1459 1461 1463 1464 1466 1467 1469 1470 1471 1473 1474 1476 1477 1479 1480 1481 1482 1484 1485 1486
1371 1373 1374 1376 1377 1379 1380 1382 1384 1385 1387 1389 1390 1391 1392 1394 1395 1397 1399 1401 1404 1405 1407 1410 1412 1414 1415 1417 1419 1421 1423 1425 1426 1429 1431 1434 1436 1438 1440 1442 1444 1445 1447 1448 1449 1450 1452 1455 1457 1459 1461 1463 1465 1466 1468 1469 1470 1472 1473 1475 1476 1478 1479 1480 1482 1483 1484 1485 1486
1372 1374 1375 1377 1378 1380 1381 1383 1384 1386 1388 1389 1390 1392 1393 1395 1396 1398 1400 1402 1405 1406 1408 1410 1412 1415 1416 1418 1420 1422 1424 1426 1427 1430 1432 1435 1437 1439 1441 1443 1445 1446 1447 1448 1450 1451 1454 1456 1457 1459 1461 1463 1465 1466 1468 1469 1470 1472 1474 1475 1477 1478 1480 1481 1482 1483 1484 1485 1486
1374 1375 1376 1378 1379 1380 1382 1384 1385 1387 1388 1390 1391 1392 1394 1395 1397 1399 1401 1403 1406 1408 1410 1412 1413 1415 1417 1419 1420 1423 1425 1427 1429 1431 1434 1436 1438 1440 1442 1444 1446 1447 1448 1449 1450 1453 1455 1456 1458 1460 1462 1464 1465 1467 1468 1470 1471 1473 1475 1476 1477 1479 1480 1481 1482 1483 1484 1485 1486
1375 1376 1378 1379 1380 1381 1383 1384 1386 1387 1389 1390 1392 1393 1395 1397 1399 1400 1403 1405 1407 1409 1411 1413 1415 1416 1418 1420 1422 1424 1426 1428 1430 1433 1435 1437 1440 1442 1444 1445 1446 1448 1449 1450 1452 1454 1456 1457 1459 1461 1463 1465 1466 1467 1469 1470 1472 1473 1475 1476 1478 1479 1480 1481 1482 1483 1484 1485 1486
1376 1377 1379 1380 1381 1382 1384 1385 1387 1389 1390 1391 1393 1395 1396 1398 1400 1402 1404 1406 1408 1410 1413 1415 1416 1418 1420 1421 1423 1425 1427 1430 1432 1434 1437 1439 1441 1443 1445 1446 1447 1448 1449 1451 1453 1455 1457 1458 1460 1462 1463 1465 1466 1468 1470 1471 1472 1474 1475 1477 1478 1480 1480 1481 1482 1483 1484 1485 1486
1377 1379 1380 1382 1382 1383 1385 1386 1388 1390 1391 1392 1394 1396 1398 1400 1402 1404 1406 1408 1410 1412 1414 1416 1418 1420 1421 1423 1425 1427 1429 1431 1433 1436 1438 1440 1442 1444 1445 1447 1448 1449 1451 1453 1455 1457 1458 1460 1461 1462 1464 1466 1467 1469 1470 1472 1473 1475 1476 1477 1479 1480 1481 1481 1483 1484 1484 1485 1485
1378 1380 1381 1383 1383 1385 1386 1388 1389 1391 1392 1394 1395 1397 1399 1401 1403 1406 1408 1410 1413 1415 1416 1418 1419 1421 1423 1425 1427 1429 1430 1432 1435 1437 1440 1442 1443 1444 1445 1447 1449 1450 1453 1455 1457 1459 1460 1461 1462 1464 1465 1466 1468 1470 1471 1472 1474 1475 1477 1478 1479 1480 1481 1482 1483 1484 1484 1485 1485
1379 1381 1383 1383 1384 1385 1387 1389 1390 1392 1393 1395 1397 1399 1401 1404 1406 1408 1410 1413 1415 1417 1418 1420 1421 1422 1424 1426 1428 1430 1432 1434 1437 1439 1441 1442 1444 1445 1446 1448 1450 1452 1455 1458 1460 1462 1463 1464 1465 1465 1466 1468 1469 1470 1472 1473 1474 1476 1477 1479 1480 1481 1481 1482 1483 1483 1484 1484 1485
1381 1383 1384 1384 1385 1387 1388 1390 1391 1393 1395 1397 1399 1402 1404 1406 1408 1410 1413 1415 1416 1418 1419 1421 1422 1424 1425 1427 1430 1432 1434 1436 1439 1440 1442 1443 1444 1445 1447 1449 1452 1455 1457 1460 1462 1463 1465 1465 1466 1467 1468 1469 1470 1471 1472 1474 1475 1476 1478 1479 1480 1481 1482 1482 1483 1483 1484 1484 1484
1383 1384 1385 1385 1387 1389 1390 1392 1394 1395 1397 1399 1401 1404 1406 1408 1410 1411 1413 1415 1417 1418 1420 1422 1423 1425 1427 1429 1431 1433 1436 1438 1440 1441 1443 1444 1445 1447 1449 1451 1454 1457 1460 1462 1463 1465 1466 1467 1468 1469 1470 1471 1472 1473 1474 1475 1476 1477 1478 1480 1481 1482 1482 1483 1483 1483 1484 1484 1484
1384 1385 1386 1387 1389 1391 1392 1394 1395 1397 1399 1401 1403 1405 1407 1409 1410 1412 1414 1415 1417 1419 1421 1422 1424 1426 1428 1430 1433 1435 1438 1440 1441 1443 1444 1445 1447 1449 1450 1453 1456 1459 1461 1463 1465 1466 1467 1468 1469 1470 1471 1472 1473 1474 1475 1476 1478 1479 1480 1480 1481 1482 1483 1483 1483 1483 1484 1484 1484
1386 1387 1388 1389 1391 1392 1394 1395 1397 1399 1401 1403 1404 1406 1407 1410 1411 1413 1414 1416 1418 1420 1421 1423 1425 1427 1430 1432 1435 1437 1440 1441 1442 1444 1445 1447 1449 1450 1452 1455 1457 1460 1462 1464 1465 1467 1468 1469 1470 1471 1472 1474 1475 1476 1477 1478 1479 1480 1480 1481 1482 1482 1483 1483 1483 1484 1484 1484 1484
1387 1388 1390 1391 1393 1394 1396 1397 1399 1400 1402 1404 1405 1407 1408 1410 1412 1414 1415 1417 1419 1420 1422 1424 1426 1429 1431 1434 1436 1439 1440 1442 1443 1445 1447 1449 1450 1452 1454 1456 1458 1461 1463 1465 1466 1467 1469 1470 1471 1472 1473 1475 1476 1477 1478 1478 1479 1480 1480 1481 1482 1482 1483 1483 1483 1484 1484 1484 1485
1389 1390 1392 1393 1395 1396 1397 1399 1400 1402 1403 1405 1406 1408 1410 1412 1414 1415 1417 1418 1420 1422 1424 1426 1428 1431 1434 1436 1438 1439 1441 1442 1444 1446 1448 1449 1450 1452 1455 1457 1460 1462 1464 1465 1467 1468 1470 1470 1472 1473 1475 1476 1477 1478 1478 1479 1480 1480 1481 1481 1482 1482 1483 1483 1483 1484 1484 1484 1485
1391 1392 1394 1395 1397 1398 1400 1401 1402 1404 1405 1406 1408 1410 1411 1413 1415 1417 1418 1420 1422 1424 1426 1429 1431 1433 1435 1437 1438 1440 1442 1444 1445 1446 1448 1449 1451 1454 1456 1458 1460 1462 1464 1466 1468 1469 1470 1472 1473 1474 1475 1476 1477 1478 1478 1479 1480 1480 1480 1481 1482 1482 1483 1483 1484 1484 1484 1484 1484
1393 1395 1396 1397 1398 1400 1401 1403 1404 1405 1407 1408 1410 1411 1413 1415 1416 1418 1420 1422 1424 1426 1429 1431 1433 1434 1436 1438 1440 1441 1443 1445 1446 1447 1448 1450 1452 1455 1457 1459 1461 1463 1465 1467 1468 1470 1471 1472 1473 1474 1475 1475 1477 1478 1478 1479 1480 1480 1480 1481 1482 1482 1483 1483 1484 1484 1484 1484 1484
1395 1396 1398 1399 1400 1402 1403 1404 1405 1407 1408 1410 1412 1413 1415 1416 1418 1420 1422 1425 1426 1429 1431 1433 1435 1437 1439 1440 1442 1443 1444 1445 1447 1448 1450 1452 1454 1456 1458 1460 1462 1464 1465 1467 1468 1470 1470 1472 1473 1474 1475 1476 1477 1478 1478 1479 1480 1480 1481 1481 1482 1482 1483 1483 1483 1483 1484 1483 1483
1398 1399 1400 1401 1402 1404 1405 1406 1407 1409 1410 1412 1414 1415 1417 1419 1421 1423 1425 1427 1429 1431 1433 1435 1437 1439 1441 1442 1444 1445 1446 1447 1449 1450 1452 1454 1455 1457 1459 1460 1462 1464 1465 1467 1468 1470 1471 1472 1473 1474 1475 1476 1477 1478 1479 1479 1480 1480 1481 1481 1482 1482 1482 1483 1483 1483 1483 1483 1483
1400 1401 1402 1403 1404 1406 1407 1408 1409 1411 1412 1414 1416 1418 1420 1422 1424 1426 1428 1429 1431 1433 1435 1437 1439 1441 1442 1444 1445 1447 1448 1450 1451 1452 1454 1456 1457 1458 1460 1461 1463 1465 1466 1467 1469 1470 1471 1472 1474 1475 1476 1477 1477 1478 1479 1479 1480 1480 1481 1481 1482 1482 1482 1483 1483 1483 1483 1483 1482
1402 1403 1404 1405 1406 1408 1409 1410 1411 1413 1415 1417 1419 1421 1423 1425 1427 1429 1431 1432 1434 1436 1438 1439 1441 1442 1444 1445 1447 1449 1450 1452 1453 1454 1455 1457 1458 1460 1461 1463 1465 1466 1467 1469 1470 1471 1472 1473 1474 1475 1476 1477 1478 1478 1479 1479 1480 1480 1481 1481 1482 1482 1482 1482 1483 1483 1482 1482 1483
1405 1405 1406 1407 1409 1410 1411 1413 1414 1415 1418 1420 1422 1425 1426 1428 1430 1432 1434 1435 1437 1438 1440 1441 1442 1444 1445 1447 1448 1450 1451 1453 1454 1455 1457 1458 1460 1462 1463 1464 1466 1467 1468 1469 1470 1471 1473 1474 1475 1476 1477 1477 1478 1479 1479 1480 1480 1480 1481 1481 1482 1482 1482 1482 1482 1482 1482 1482 1483
1407 1408 1409 1410 1411 1412 1414 1415 1417 1419 1421 1424 1426 1428 1429 1431 1432 1434 1436 1438 1439 1440 1441 1442 1444 1445 1447 1448 1450 1451 1452 1454 1455 1456 1458 1460 1461 1463 1464 1465 1466 1467 1469 1470 1471 1472 1473 1475 1475 1476 1477 1478 1478 1479 1479 1480 1480 1481 1481 1481 1482 1482 1482 1482 1482 1482 1482 1482 1483
1409 1410 1411 1413 1414 1415 1417 1419 1420 1423 1425 1427 1429 1430 1432 1433 1434 1436 1437 1439 1441 1442 1444 1445 1446 1447 1448 1450 1451 1452 1453 1454 1455 1457 1459 1460 1462 1463 1465 1466 1467 1468 1469 1470 1472 1473 1474 1475 1475 1476 1477 1478 1479 1479 1480 1480 1481 1481 1481 1481 1482 1482 1482 1482 1481 1482 1482 1482 1482